Regional Weather Roundup
Issued by NWS Little Rock, AR

Home | Current Version | Previous Version | Graphics & Text | Print | Product List | Glossary On
Versions: 1 2 3 4 5 6 7 8 9 10 11 12 13 14 15 16 17 18 19 20 21 22 23 24 25 26 27 28 29 30 31
000
ASUS44 KLZK 280805
RWRLZK

WEATHER ROUNDUP FOR ARKANSAS
NATIONAL WEATHER SERVICE LITTLE ROCK AR
300 AM CDT FRI JUL 28 2017

NOTE: "FAIR" INDICATES FEW OR NO CLOUDS BELOW 12,000 FEET WITH NO
SIGNIFICANT WEATHER AND/OR OBSTRUCTIONS TO VISIBILITY.

ARZ001-003-010-029-280900-
NORTHWEST ARKANSAS

CITY           SKY/WX    TMP DP  RH WIND       PRES   REMARKS
FAYETTEVILLE   LGT RAIN  76  76 100 CALM      29.92S
FORT SMITH     LGT RAIN  80  77  90 NE3       29.86S HX  87
HARRISON       CLOUDY    76  76 100 W3        29.92R
BENTONVILLE    CLOUDY    75  72  88 CALM      29.93S THUNDER
ROGERS         TSTM      75  73  94 CALM      29.93F
SILOAM SPGS    CLOUDY    73  70  88 NE5       29.91F
$$

ARZ004-005-016-280900-
NORTH CENTRAL ARKANSAS

CITY           SKY/WX    TMP DP  RH WIND       PRES   REMARKS
BATESVILLE     CLOUDY    79  73  83 SW8       29.86S
FLIPPIN        CLOUDY    77  72  83 CALM      29.86S
MTN HOME       LGT RAIN  75  75 100 CALM      29.89S
$$

ARZ040-041-280900-
WEST CENTRAL ARKANSAS

CITY           SKY/WX    TMP DP  RH WIND       PRES   REMARKS
MENA           MOCLDY    84  77  79 SW7       29.92S HX  94
MOUNT IDA      MOCLDY    84  70  62 VRB5      29.88R HX  88
$$

ARZ009-017-025-026-028-280900-
NORTHEAST ARKANSAS

CITY           SKY/WX    TMP DP  RH WIND       PRES   REMARKS
CORNING        LGT RAIN  77  77 100 SW3       29.86S
JONESBORO      PTCLDY    79  77  94 SW8       29.85S
WALNUT RIDGE   MOCLDY    75  73  94 CALM      29.86R
BLYTHEVILLE    CLOUDY    77  76  96 SW6       29.85S
$$

ARZ022-023-033-042-044-280900-
CENTRAL ARKANSAS

CITY           SKY/WX    TMP DP  RH WIND       PRES   REMARKS
LITTLE ROCK    CLOUDY    81  78  91 S6        29.87F HX  89
N LITTLE ROCK    N/A     79  77  93 CALM      29.85F
JACKSONVILLE   CLOUDY    78  78 100 CALM      29.86F
CONWAY           N/A     79  79 100 CALM      29.85S
SEARCY         LGT RAIN  77  77 100 CALM      29.88S
HOT SPRINGS    CLOUDY    83  76  79 NW3       29.89S HX  91
RUSSELLVILLE   CLOUDY    78  78 100 CALM      29.86S
CLINTON        MOCLDY    77  75  94 CALM      29.87F THUNDER
$$

ARZ036-280900-
EAST ARKANSAS

CITY           SKY/WX    TMP DP  RH WIND       PRES   REMARKS
WEST MEMPHIS   PTCLDY    80  79  96 SW6       29.85S HX  88
$$

ARZ050-053-066-070-073-280900-
SOUTHWEST ARKANSAS

CITY           SKY/WX    TMP DP  RH WIND       PRES   REMARKS
ARKADELPHIA    PTSUNNY   79  76  90 CALM      29.89S
CAMDEN         CLOUDY    81  72  74 CALM      29.89S
TEXARKANA      MOCLDY    81  73  76 SW10      29.90S HX  86
EL DORADO      MOCLDY    77  74  90 S3        29.91S
DE QUEEN       CLOUDY    77  77 100 CALM      29.87S
$$

ARZ056-057-069-280900-
SOUTHEAST ARKANSAS

CITY           SKY/WX    TMP DP  RH WIND       PRES   REMARKS
PINE BLUFF     MOCLDY    80  75  84 S3        29.88F HX  85
STUTTGART      CLOUDY    81  64  57 E5        29.89S
MONTICELLO     CLOUDY    82  73  74 SW9       29.90S HX  87

$$






USA.gov is the U.S. government's official web portal to all federal, state and local government web resources and services.